Hourly Data Report for July 07, 2021

RANKIN INLET A
NUNAVUT
Current Station Operator: NAVCAN

62°48'38.000" N
92°06'53.000" W
32.30 m
2303405
71083
YRT

Download Data

Hourly Data (July 2021)
Hourly Data Report for July 7, 2021
TIME
LST
Temp Definition
°C
Dew Point Definition
°C
Rel Hum Definition
%
Precip. Amount Definition
mm

Wind Dir Definition
10's deg

Wind Spd Definition
km/h
Visibility Definition
km
Stn Press Definition
kPa
Hmdx Definition


Wind Chill Definition


Weather Definition


00:00 10.1 8.9 92   25 11 24.1 100.47     Mostly Cloudy
01:00 9.4 7.9 90   24 13 24.1 100.40     LegendNANA
02:00 9.6 8.3 92   27 16 24.1 100.38     LegendNANA
03:00 9.7 8.4 92   24 16 24.1 100.30     Rain
04:00 9.7 8.1 90   26 16 24.1 100.24     Rain
05:00 9.8 8.7 93   25 12 24.1 100.19     LegendNANA
06:00 9.9 9.0 94   27 9 24.1 100.14     Mostly Cloudy
07:00 12.0 9.9 87   26 8 24.1 100.08     LegendNANA
08:00 13.2 10.4 83   23 13 24.1 100.02     LegendNANA
09:00 13.4 10.2 81   24 14 24.1 99.97     Mainly Clear
10:00 16.4 11.3 72   25 20 24.1 99.95     LegendNANA
11:00 14.1 11.1 82   34 29 24.1 99.92     LegendNANA
12:00 14.7 9.4 70   33 34 24.1 99.90     Mostly Cloudy
13:00 15.6 8.3 62   32 35 24.1 99.90     LegendNANA
14:00 13.3 8.2 71   32 39 24.1 99.93     LegendNANA
15:00 13.9 8.2 69   31 26 24.1 99.94     Mostly Cloudy
16:00 15.3 7.5 60   33 33 24.1 99.92     LegendNANA
17:00 15.2 7.0 58   33 32 24.1 99.92     LegendNANA
18:00 15.0 8.2 63   33 32 24.1 99.95     Mostly Cloudy
19:00 14.1 8.3 68   35 33 24.1 99.94     LegendNANA
20:00 13.7 8.0 68   35 28 24.1 99.99     LegendNANA
21:00 12.3 7.5 72   35 22 24.1 100.06     Mainly Clear
22:00 9.7 6.8 82   33 14 24.1 100.11     LegendNANA
23:00 9.3 7.0 86   34 16 24.1 100.12     LegendNANA

Notes on Data Quality.

Legend

  • E = Estimated
  • M = Missing
  • NA = Not Available*
  • [empty] = Indicates an unobserved value
Date modified: